Satellite: ISS
Catalog number: 25544
Epoch time:      10064.25728148
Element set:     704
Inclination:      051.6468 deg
RA of node:       044.1586 deg
Eccentricity:    0.0007596
Arg of perigee:   015.0088 deg
Mean anomaly:     071.6680 deg
Mean motion:   15.73640827 rev/day
Decay rate:     1.4794e-04 rev/day^2
Epoch rev:           64710
Checksum:              307

Satellite: CO-58
Catalog number: 28895
Epoch time:      10062.70450115
Element set:     526
Inclination:      098.0287 deg
RA of node:       310.5895 deg
Eccentricity:    0.0016812
Arg of perigee:   254.3483 deg
Mean anomaly:     105.5937 deg
Mean motion:   14.59853823 rev/day
Decay rate:       2.01e-06 rev/day^2
Epoch rev:           23159
Checksum:              313

Satellite: FALCON
Catalog number: 30776
Epoch time:      10062.90307538
Element set:     777
Inclination:      035.4346 deg
RA of node:       323.4242 deg
Eccentricity:    0.0001767
Arg of perigee:   329.1766 deg
Mean anomaly:     030.8846 deg
Mean motion:   15.03503669 rev/day
Decay rate:       7.85e-06 rev/day^2
Epoch rev:           16420
Checksum:              297

Satellite: MAST
Catalog number: 31126
Epoch time:      10063.72790156
Element set:     810
Inclination:      097.9507 deg
RA of node:       111.0752 deg
Eccentricity:    0.0094582
Arg of perigee:   190.1872 deg
Mean anomaly:     169.7396 deg
Mean motion:   14.53559986 rev/day
Decay rate:       2.08e-06 rev/day^2
Epoch rev:           15288
Checksum:              318

Satellite: CAPE1
Catalog number: 31130
Epoch time:      10063.60914541
Element set:     829
Inclination:      097.9492 deg
RA of node:       108.5811 deg
Eccentricity:    0.0102545
Arg of perigee:   198.0336 deg
Mean anomaly:     161.7148 deg
Mean motion:   14.52142944 rev/day
Decay rate:        9.8e-07 rev/day^2
Epoch rev:           15248
Checksum:              290

Satellite: COMPASS
Catalog number: 32787
Epoch time:      10062.69461208
Element set:     610
Inclination:      097.9049 deg
RA of node:       128.8543 deg
Eccentricity:    0.0014726
Arg of perigee:   269.0482 deg
Mean anomaly:     090.9037 deg
Mean motion:   14.81778287 rev/day
Decay rate:       6.40e-06 rev/day^2
Epoch rev:            9987
Checksum:              332

Satellite: AAUSAT2
Catalog number: 32788
Epoch time:      10062.43755648
Element set:     604
Inclination:      097.9061 deg
RA of node:       128.7094 deg
Eccentricity:    0.0013897
Arg of perigee:   271.7049 deg
Mean anomaly:     088.2512 deg
Mean motion:   14.81912900 rev/day
Decay rate:       5.03e-06 rev/day^2
Epoch rev:            9984
Checksum:              320

Satellite: DO-64
Catalog number: 32789
Epoch time:      10062.25201417
Element set:     620
Inclination:      097.9116 deg
RA of node:       128.8849 deg
Eccentricity:    0.0014572
Arg of perigee:   269.9126 deg
Mean anomaly:     090.0413 deg
Mean motion:   14.81989390 rev/day
Decay rate:       3.39e-06 rev/day^2
Epoch rev:            9981
Checksum:              326

Satellite: CO-66
Catalog number: 32791
Epoch time:      10063.17452524
Element set:     601
Inclination:      097.9066 deg
RA of node:       129.3533 deg
Eccentricity:    0.0014996
Arg of perigee:   266.0755 deg
Mean anomaly:     093.8708 deg
Mean motion:   14.81579889 rev/day
Decay rate:       2.41e-06 rev/day^2
Epoch rev:            9990
Checksum:              343

Satellite: RS-30
Catalog number: 32953
Epoch time:      10062.60762319
Element set:     539
Inclination:      082.4985 deg
RA of node:       095.3407 deg
Eccentricity:    0.0018277
Arg of perigee:   337.2807 deg
Mean anomaly:     022.7470 deg
Mean motion:   12.43003847 rev/day
Decay rate:        1.0e-07 rev/day^2
Epoch rev:            8062
Checksum:              286

Satellite: TACSAT-3
Catalog number: 35001
Epoch time:      10063.59728232
Element set:     230
Inclination:      040.4559 deg
RA of node:       121.8641 deg
Eccentricity:    0.0023434
Arg of perigee:   301.7054 deg
Mean anomaly:     058.1476 deg
Mean motion:   15.40554018 rev/day
Decay rate:      5.590e-05 rev/day^2
Epoch rev:            4449
Checksum:              264

Satellite: PHARMSAT
Catalog number: 35002
Epoch time:      10063.46043939
Element set:     218
Inclination:      040.4710 deg
RA of node:       121.1014 deg
Eccentricity:    0.0026495
Arg of perigee:   303.7953 deg
Mean anomaly:     056.0340 deg
Mean motion:   15.41189219 rev/day
Decay rate:      4.602e-05 rev/day^2
Epoch rev:            4448
Checksum:              250

Satellite: HAWKSAT1
Catalog number: 35003
Epoch time:      10063.47929045
Element set:     230
Inclination:      040.4637 deg
RA of node:       118.3315 deg
Eccentricity:    0.0024650
Arg of perigee:   311.2683 deg
Mean anomaly:     048.6011 deg
Mean motion:   15.43091981 rev/day
Decay rate:      9.093e-05 rev/day^2
Epoch rev:            4452
Checksum:              259

Satellite: CP6
Catalog number: 35004
Epoch time:      10063.45530196
Element set:     223
Inclination:      040.4660 deg
RA of node:       118.1620 deg
Eccentricity:    0.0023884
Arg of perigee:   310.6795 deg
Mean anomaly:     049.1950 deg
Mean motion:   15.43513599 rev/day
Decay rate:     1.0586e-04 rev/day^2
Epoch rev:            4451
Checksum:              277

